TimeHST,TemperatureF,Dew PointF,Humidity,Sea Level PressureIn,VisibilityMPH,Wind Direction,Wind SpeedMPH,Gust SpeedMPH,PrecipitationIn,Events,Conditions,WindDirDegrees,DateUTC
12:53 AM,68.9,63.0,81,30.01,10.0,Calm,Calm,-,N/A,,Partly Cloudy,0,2013-03-11 10:53:00
1:53 AM,64.2,63.0,96,30.00,10.0,Calm,Calm,-,N/A,,Partly Cloudy,0,2013-03-11 11:53:00
2:53 AM,63.3,62.1,96,29.98,10.0,NNW,5.8,-,N/A,,Partly Cloudy,330,2013-03-11 12:53:00
3:53 AM,63.0,62.1,97,29.97,10.0,Calm,Calm,-,N/A,,Partly Cloudy,0,2013-03-11 13:53:00
4:53 AM,62.6,61.5,96,29.98,10.0,NW,4.6,-,N/A,,Partly Cloudy,320,2013-03-11 14:53:00
5:53 AM,63.7,61.0,91,29.99,10.0,North,4.6,-,N/A,,Partly Cloudy,360,2013-03-11 15:53:00
6:53 AM,65.3,63.5,94,30.01,10.0,Calm,Calm,-,N/A,,Partly Cloudy,0,2013-03-11 16:53:00
7:53 AM,66.0,63.0,90,30.03,10.0,NW,4.6,-,N/A,,Scattered Clouds,320,2013-03-11 17:53:00
8:53 AM,70.0,64.0,81,30.06,10.0,Calm,Calm,-,N/A,,Mostly Cloudy,0,2013-03-11 18:53:00
9:53 AM,73.9,63.0,68,30.07,10.0,Calm,Calm,-,N/A,,Scattered Clouds,0,2013-03-11 19:53:00
10:53 AM,75.9,64.0,67,30.07,10.0,South,5.8,-,N/A,,Mostly Cloudy,190,2013-03-11 20:53:00
11:53 AM,75.9,61.0,60,30.05,10.0,South,8.1,-,N/A,,Scattered Clouds,180,2013-03-11 21:53:00
12:53 PM,75.9,61.0,60,30.03,10.0,South,8.1,-,N/A,,Scattered Clouds,180,2013-03-11 22:53:00
1:53 PM,77.0,62.1,60,30.00,10.0,SSW,8.1,-,N/A,,Scattered Clouds,200,2013-03-11 23:53:00
2:53 PM,77.0,64.0,64,29.99,10.0,South,9.2,-,N/A,,Scattered Clouds,190,2013-03-12 00:53:00
3:53 PM,75.9,64.9,69,29.98,10.0,South,6.9,-,N/A,,Scattered Clouds,190,2013-03-12 01:53:00
4:53 PM,75.0,64.0,69,29.98,10.0,Variable,5.8,-,N/A,,Scattered Clouds,0,2013-03-12 02:53:00
5:53 PM,75.0,63.0,66,29.99,10.0,South,4.6,-,N/A,,Scattered Clouds,170,2013-03-12 03:53:00
6:53 PM,73.9,63.0,68,30.00,10.0,SW,3.5,-,N/A,,Scattered Clouds,220,2013-03-12 04:53:00
7:53 PM,73.0,64.0,73,30.03,10.0,SW,3.5,-,N/A,,Scattered Clouds,230,2013-03-12 05:53:00
8:25 PM,73.4,64.4,73,30.04,10.0,Calm,Calm,-,N/A,,Mostly Cloudy,0,2013-03-12 06:25:00
8:53 PM,73.0,63.0,71,30.06,10.0,NNW,8.1,-,N/A,,Mostly Cloudy,330,2013-03-12 06:53:00
9:53 PM,71.1,62.1,73,30.07,10.0,NNE,4.6,-,N/A,,Partly Cloudy,20,2013-03-12 07:53:00
10:53 PM,71.1,63.0,75,30.06,10.0,NNW,6.9,-,N/A,,Partly Cloudy,330,2013-03-12 08:53:00
11:53 PM,70.0,63.0,78,30.06,10.0,NNW,6.9,-,N/A,,Partly Cloudy,330,2013-03-12 09:53:00